[[{"header":{"parameterUnit":"m.s-1","parameterCategory":1,"la1":30.2991,"la2":30.254,"lo1":-89.0895,"lo2":-89.0444,"dy":0.0017,"dx":0.0017,"nx":28,"ny":28,"refTime":"2024-08-15T09:00:00:Z","depth":0,"parameterNumber":2,"parameterNumberName":"U-component_of_WINDS"},"data":[0,0,0,0,0,0,0,0,0,0,0,0,0,0,0,0,0,0,0,0,0,0,0,0,0,0,0,0,0,0,0,0,0,0,0,0,0,0,0,0,0,0,0,0,0,0,0,0,0,0,0,0,0,0,0,0,0,0,-1.2504,-1.2504,0,-1.2528,-1.2528,-1.2528,-1.2534,-1.2534,-1.2534,-1.2534,-1.256,-1.2561,-1.2562,0,0,0,0,0,0,0,0,0,0,0,0,0,-1.2464,-1.2465,-1.2504,-1.2504,-1.2504,-1.2528,-1.2528,-1.2528,-1.2534,-1.2534,-1.2534,-1.2534,-1.256,-1.2561,-1.2562,0,0,0,0,0,0,0,0,0,0,0,0,0,-1.2484,-1.2465,-1.2504,-1.251,-1.2511,-1.2528,-1.2528,-1.2529,-1.2534,-1.2534,-1.2534,-1.2534,-1.2559,-1.2561,-1.2562,-1.2575,0,0,-1.2566,-1.2566,0,0,0,0,0,0,0,0,-1.2483,-1.2486,-1.2509,-1.251,-1.251,-1.2528,-1.2524,-1.2544,-1.2534,-1.2525,-1.2534,-1.2534,-1.255,-1.2552,-1.2557,-1.2576,-1.2577,-1.2566,-1.2567,-1.2567,-1.2568,0,0,0,0,0,0,0,-1.2482,-1.2485,-1.2513,-1.2509,-1.251,-1.2512,-1.2515,-1.2528,-1.2539,-1.2526,-1.2527,-1.2529,-1.255,-1.2556,-1.2557,-1.2577,-1.2566,-1.2567,-1.2568,-1.2568,-1.2608,-1.2608,0,0,0,0,0,0,-1.2479,-1.2483,-1.2512,-1.2514,-1.2496,-1.2513,-1.2516,-1.2523,-1.2539,-1.2541,-1.253,-1.253,-1.2553,-1.2556,-1.2558,-1.2574,-1.2567,-1.2568,-1.2569,-1.2608,-1.2608,-1.2609,0,0,0,0,0,0,-1.2478,-1.2481,-1.2511,-1.2499,-1.2503,-1.2514,-1.2521,-1.2523,-1.2529,-1.2541,-1.2543,-1.2533,-1.2553,-1.2557,-1.257,-1.2575,-1.2569,-1.257,-1.2608,-1.2608,-1.2608,-1.2606,0,0,0,0,0,0,-1.2477,-1.2481,-1.2486,-1.2499,-1.2503,-1.2523,-1.2522,-1.2524,-1.2531,-1.2531,-1.2545,-1.2547,-1.2553,-1.2569,-1.2572,-1.2577,-1.2571,-1.2607,-1.2608,-1.2608,-1.2606,-1.2606,-1.2607,0,0,0,0,0,-1.2475,-1.2484,-1.2486,-1.2489,-1.2509,-1.2523,-1.2526,-1.2532,-1.2531,-1.2536,-1.2544,-1.2547,-1.2574,-1.257,-1.2574,-1.2579,-1.2607,-1.2608,-1.2608,-1.2605,-1.2606,-1.2607,0,0,0,0,0,0,-1.2472,-1.2486,-1.2488,-1.2501,-1.2511,-1.2524,-1.253,-1.2533,-1.2544,-1.2543,-1.2552,-1.2555,-1.2568,-1.2575,-1.257,-1.2592,-1.2591,-1.2592,-1.2587,-1.2588,-1.2589,-1.2587,-1.2572,0,0,0,0,0,-1.2472,-1.2482,-1.2494,-1.2505,-1.2509,-1.2519,-1.2525,-1.253,-1.254,-1.2544,-1.2553,-1.2564,-1.2575,-1.2582,-1.2593,-1.2607,-1.261,-1.2613,-1.2613,-1.2613,-1.2615,-1.2623,-1.2624,-1.2611,-1.2611,-1.2611,0,0,-1.2474,-1.2483,-1.2489,-1.2504,-1.2512,-1.2522,-1.2522,-1.2533,-1.254,-1.2546,-1.2559,-1.2566,-1.2579,-1.2593,-1.2599,-1.2599,-1.2619,-1.2614,-1.2615,-1.2615,-1.2623,-1.2625,-1.2626,-1.2611,-1.2611,-1.2611,0,0,-1.2482,-1.249,-1.2499,-1.2507,-1.2519,-1.2525,-1.2528,-1.254,-1.2545,-1.2559,-1.2563,-1.2572,-1.2591,-1.26,-1.2607,-1.2618,-1.2621,-1.2621,-1.2624,-1.2632,-1.2633,-1.2634,-1.2638,-1.2639,-1.2622,-1.2622,-1.2622,0,-1.2483,-1.2497,-1.2504,-1.2514,-1.2521,-1.2526,-1.2536,-1.2544,-1.2559,-1.2563,-1.2563,-1.2586,-1.2595,-1.2611,-1.2614,-1.2619,-1.2622,-1.262,-1.2632,-1.2633,-1.2634,-1.2638,-1.2639,-1.2622,-1.2622,-1.2622,-1.2622,0,-1.2498,-1.2508,-1.2514,-1.2528,-1.2536,-1.2546,-1.2554,-1.2561,-1.2565,-1.2572,-1.2586,-1.2596,-1.2609,-1.2613,-1.2618,-1.263,-1.2629,-1.263,-1.2629,-1.2635,-1.2639,-1.264,-1.2622,-1.2622,-1.2622,-1.2622,0,0,-1.2504,-1.2521,-1.2523,-1.253,-1.2543,-1.2551,-1.2562,-1.2574,-1.258,-1.259,-1.2599,-1.2615,-1.2616,-1.2624,-1.2629,-1.2635,-1.2644,-1.2636,-1.2636,-1.2636,-1.2658,-1.2657,-1.2659,-1.2646,-1.2646,-1.2646,-1.2657,0,-1.2514,-1.2532,-1.2538,-1.2553,-1.2563,-1.2568,-1.2577,-1.2587,-1.2593,-1.2603,-1.261,-1.2621,-1.2621,-1.2626,-1.2633,-1.2641,-1.2648,-1.2641,-1.2655,-1.2655,-1.2651,-1.2661,-1.266,-1.267,-1.2659,-1.2659,-1.2659,0,-1.2527,-1.2537,-1.2553,-1.2565,-1.2569,-1.2577,-1.2589,-1.2598,-1.2609,-1.2613,-1.2622,-1.2626,-1.2638,-1.2636,-1.2652,-1.2647,-1.2653,-1.2658,-1.2659,-1.266,-1.2657,-1.2662,-1.2673,-1.2674,-1.2662,-1.2661,-1.2661,0,-1.253,-1.2547,-1.2559,-1.2564,-1.2579,-1.2584,-1.259,-1.2601,-1.2608,-1.2619,-1.2623,-1.2635,-1.2642,-1.2651,-1.2659,-1.2657,-1.2675,-1.2673,-1.2679,-1.2678,-1.2682,-1.2682,-1.2693,-1.2686,-1.2686,-1.2686,-1.2686,0,-1.254,-1.255,-1.256,-1.2568,-1.2579,-1.2586,-1.2597,-1.2604,-1.2613,-1.2622,-1.2627,-1.2636,-1.2646,-1.2656,-1.2662,-1.2675,-1.2678,-1.2682,-1.2683,-1.2681,-1.268,-1.2685,-1.2685,-1.2687,-1.2687,-1.2687,-1.2686,0,-1.2545,-1.2553,-1.2566,-1.2578,-1.2581,-1.2589,-1.26,-1.2607,-1.2614,-1.2625,-1.2628,-1.2639,-1.2651,-1.266,-1.2675,-1.268,-1.2693,-1.2695,-1.2689,-1.269,-1.2695,-1.2694,-1.271,-1.2712,-1.2703,-1.2703,-1.2704,0,-1.2551,-1.2558,-1.2571,-1.2577,-1.2583,-1.2593,-1.26,-1.2608,-1.2615,-1.2628,-1.2634,-1.2646,-1.2656,-1.2675,-1.2684,-1.2696,-1.2698,-1.2703,-1.27,-1.2698,-1.2698,-1.2697,-1.2698,-1.2703,-1.2703,-1.2703,-1.2703,0,-1.256,-1.2564,-1.2573,-1.2584,-1.2592,-1.2601,-1.261,-1.2615,-1.2624,-1.2632,-1.2644,-1.2652,-1.2667,-1.2679,-1.2692,-1.2699,-1.2703,-1.2704,-1.2706,-1.2704,-1.27,-1.2702,-1.269,-1.2704,-1.2704,-1.2704,-1.2704,-1.2704,-1.2566,-1.2573,-1.2582,-1.2593,-1.26,-1.2609,-1.2616,-1.2624,-1.2633,-1.2646,-1.265,-1.2663,-1.2674,-1.2691,-1.2698,-1.2709,-1.2709,-1.2711,-1.2712,-1.2713,-1.2712,-1.2699,-1.2711,-1.2711,-1.2711,-1.2711,-1.2711,0,-1.2576,-1.2582,-1.2591,-1.2604,-1.2612,-1.2614,-1.2624,-1.2631,-1.2642,-1.2651,-1.2661,-1.2674,-1.2686,-1.2696,-1.2709,-1.2715,-1.2717,-1.2718,-1.2717,-1.2719,-1.2712,-1.2709,-1.2716,-1.2716,-1.2716,-1.2716,-1.2716,-1.2716,-1.2582,-1.2593,-1.2597,-1.2613,-1.2619,-1.2631,-1.2636,-1.2644,-1.2652,-1.2667,-1.2676,-1.2682,-1.2692,-1.2705,-1.2716,-1.2719,-1.2723,-1.2724,-1.2727,-1.272,-1.2719,-1.2719,-1.2716,-1.2725,-1.2725,-1.2733,-1.2734,-1.2734]},{"header":{"parameterUnit":"m.s-1","parameterCategory":1,"la1":30.2991,"la2":30.254,"lo1":-89.0895,"lo2":-89.0444,"dy":0.0017,"dx":0.0017,"nx":28,"ny":28,"refTime":"2024-08-15T09:00:00:Z","depth":0,"parameterNumber":3,"parameterNumberName":"V-component_of_WINDS"},"data":[0,0,0,0,0,0,0,0,0,0,0,0,0,0,0,0,0,0,0,0,0,0,0,0,0,0,0,0,0,0,0,0,0,0,0,0,0,0,0,0,0,0,0,0,0,0,0,0,0,0,0,0,0,0,0,0,0,0,3.4028,3.4028,0,3.4021,3.4021,3.4021,3.4005,3.4005,3.4005,3.4005,3.3998,3.3998,3.3998,0,0,0,0,0,0,0,0,0,0,0,0,0,3.4027,3.4027,3.4028,3.4028,3.4028,3.4021,3.4021,3.4021,3.4006,3.4005,3.4005,3.4004,3.3998,3.3998,3.3998,0,0,0,0,0,0,0,0,0,0,0,0,0,3.4025,3.4028,3.4028,3.4019,3.4018,3.4021,3.4021,3.4021,3.4006,3.4005,3.4005,3.4004,3.3998,3.3998,3.3998,3.4009,0,0,3.3999,3.3999,0,0,0,0,0,0,0,0,3.4025,3.4025,3.4021,3.402,3.4019,3.4014,3.4019,3.4017,3.4006,3.401,3.4005,3.4004,3.4004,3.4003,3.4003,3.4009,3.4009,3.3999,3.3999,3.3999,3.3999,0,0,0,0,0,0,0,3.4025,3.4025,3.4025,3.4021,3.4019,3.4016,3.4015,3.4018,3.401,3.401,3.4009,3.4008,3.4003,3.4003,3.4003,3.4009,3.3999,3.3999,3.3999,3.3999,3.4023,3.4024,0,0,0,0,0,0,3.4027,3.4025,3.4026,3.4025,3.4021,3.4016,3.4015,3.4016,3.401,3.4008,3.4009,3.4008,3.4003,3.4003,3.4003,3.4015,3.3999,3.3999,3.3999,3.4023,3.4023,3.4024,0,0,0,0,0,0,3.4027,3.4027,3.4026,3.4025,3.4025,3.4017,3.4018,3.4016,3.4016,3.4009,3.4007,3.401,3.4003,3.4002,3.4008,3.4015,3.3999,3.4,3.4022,3.4023,3.4024,3.404,0,0,0,0,0,0,3.4027,3.4027,3.4031,3.4025,3.4025,3.4031,3.4018,3.4016,3.4016,3.4015,3.401,3.4008,3.4002,3.4008,3.4008,3.4015,3.4,3.4022,3.4023,3.4024,3.4039,3.4041,3.4043,0,0,0,0,0,3.4027,3.4036,3.4031,3.4031,3.4029,3.4031,3.4031,3.4023,3.4017,3.4021,3.4016,3.4009,3.4014,3.4008,3.4009,3.4015,3.4021,3.4022,3.4023,3.4038,3.4041,3.4043,0,0,0,0,0,0,3.4042,3.4035,3.403,3.4037,3.4035,3.4029,3.4033,3.4027,3.4027,3.4025,3.4016,3.4015,3.4022,3.4019,3.4013,3.4026,3.4016,3.4018,3.4027,3.403,3.4032,3.4032,3.4,0,0,0,0,0,3.4047,3.4049,3.4042,3.4049,3.4049,3.4041,3.4042,3.4036,3.4034,3.4033,3.4029,3.4027,3.4028,3.4029,3.403,3.4039,3.4037,3.4043,3.4046,3.4048,3.4049,3.4053,3.4056,3.4028,3.4028,3.4028,0,0,3.4056,3.4052,3.4054,3.4052,3.405,3.4053,3.4041,3.4044,3.4045,3.4033,3.4038,3.4035,3.4032,3.404,3.4043,3.4038,3.4056,3.4049,3.4051,3.4051,3.4055,3.4057,3.406,3.4029,3.4029,3.4028,0,0,3.4073,3.407,3.4076,3.4074,3.4071,3.4066,3.4067,3.4062,3.406,3.4064,3.4055,3.4058,3.406,3.4058,3.4058,3.4075,3.4068,3.4076,3.4087,3.4092,3.4094,3.4096,3.4102,3.4104,3.4077,3.4077,3.4077,0,3.4084,3.4087,3.408,3.4083,3.4083,3.4072,3.4078,3.4077,3.4074,3.4074,3.4069,3.4071,3.4069,3.4075,3.408,3.408,3.4081,3.4076,3.4094,3.4096,3.4098,3.4103,3.4105,3.4078,3.4078,3.4078,3.4077,0,3.4101,3.4104,3.4109,3.4106,3.4107,3.4111,3.4104,3.4106,3.4101,3.4096,3.4101,3.4098,3.4098,3.4099,3.4094,3.4105,3.4102,3.4096,3.4086,3.4101,3.4106,3.4108,3.4079,3.4079,3.4078,3.4078,0,0,3.4127,3.4121,3.4123,3.4122,3.4118,3.412,3.4124,3.4124,3.4125,3.4124,3.4127,3.413,3.4124,3.4123,3.4118,3.4122,3.4136,3.4115,3.4115,3.4118,3.4148,3.4152,3.4155,3.4131,3.4132,3.4132,3.4148,0,3.4143,3.415,3.4143,3.4152,3.4154,3.4144,3.4148,3.4146,3.4143,3.4144,3.414,3.4142,3.4134,3.4134,3.4137,3.4133,3.4141,3.4132,3.4134,3.4134,3.4134,3.4157,3.4162,3.4177,3.415,3.415,3.415,0,3.4162,3.4162,3.417,3.4166,3.4167,3.417,3.417,3.4171,3.4169,3.4166,3.4166,3.416,3.4164,3.4155,3.416,3.4154,3.4155,3.4153,3.4153,3.4153,3.4143,3.4157,3.4182,3.4184,3.4153,3.4153,3.4153,0,3.418,3.4182,3.4187,3.4186,3.4182,3.4184,3.4182,3.418,3.418,3.418,3.418,3.418,3.418,3.4181,3.4175,3.4169,3.4181,3.4172,3.4179,3.4179,3.4181,3.4181,3.4206,3.4183,3.4183,3.4182,3.4182,0,3.4198,3.4204,3.4195,3.4198,3.4204,3.4197,3.4203,3.42,3.4198,3.42,3.4192,3.4195,3.4187,3.4189,3.4184,3.4189,3.419,3.4187,3.4186,3.4188,3.4188,3.4187,3.4186,3.4183,3.4183,3.4183,3.4183,0,3.4218,3.4213,3.4218,3.4213,3.4212,3.4217,3.4212,3.4215,3.4212,3.4215,3.4215,3.4209,3.4211,3.4205,3.4206,3.4203,3.4211,3.4208,3.4211,3.421,3.4217,3.4217,3.4242,3.4245,3.4221,3.4221,3.4221,0,3.423,3.4234,3.423,3.4231,3.4229,3.4231,3.4232,3.4225,3.4226,3.4224,3.4227,3.4228,3.4228,3.4232,3.4227,3.4228,3.4225,3.4234,3.4225,3.4227,3.4224,3.4224,3.4224,3.4236,3.4236,3.4236,3.4236,0,3.4251,3.4248,3.4249,3.4249,3.425,3.4249,3.4249,3.425,3.4243,3.4244,3.4246,3.4246,3.4247,3.4248,3.4248,3.4247,3.424,3.4239,3.4241,3.4242,3.4244,3.4243,3.4216,3.4239,3.4238,3.4238,3.4238,3.4238,3.4267,3.427,3.4267,3.4269,3.4267,3.4267,3.4269,3.4266,3.4267,3.4267,3.4263,3.4266,3.4264,3.4263,3.4262,3.4264,3.426,3.4262,3.4263,3.4263,3.4264,3.4244,3.4264,3.4264,3.4264,3.4264,3.4264,0,3.4287,3.4285,3.4286,3.4285,3.4286,3.4281,3.428,3.4281,3.4283,3.4282,3.4283,3.4285,3.4286,3.4282,3.4283,3.4285,3.4282,3.4286,3.4285,3.4285,3.4268,3.4267,3.4288,3.4288,3.4288,3.4288,3.4288,3.4288,3.4297,3.4302,3.4299,3.4303,3.4301,3.4304,3.4304,3.4303,3.4302,3.4305,3.4306,3.4303,3.4301,3.4302,3.4303,3.4301,3.4302,3.4306,3.4304,3.4288,3.4286,3.4284,3.4282,3.4306,3.4306,3.432,3.432,3.432]}]]